STARLINK-34426

Last updated on Thu Jul 03 2025 00:02:06 GMT+0000 (Coordinated Universal Time)

1 64345U 25126B 25183.58335648 -.01415562 00000+0 -17117-1 0 9992 2 64345 69.9995 310.2380 0003140 270.1241 294.7672 15.63229799 4322
UTC large
Height (km)
Speed (km/s)
/
Latitude / Longitude
Inclination (degrees)
Orbital Period (minutes)
Azimuth
Elevation
Range (km)
Doppler Factor

Next 0 passes for location: London (51.5072 / 0.1276)

Sorry there are no passes over London.